Weather History for Penn Yan, NY

Change the Weather History Date:

Monday, December 2, 2013

  Actual Average (KITH) Record (KITH)
Temperature  
Mean Temperature 37 °F -  
Max Temperature 39 °F 37 °F 66 °F (1998)
Min Temperature 35 °F 23 °F -3 °F (1989)
Degree Days  
Heating Degree Days 28    
Moisture  
Dew Point 31 °F    
Average Humidity 83    
Maximum Humidity 89    
Minimum Humidity 75    
Precipitation  
Precipitation 0.00 in - - ()
Sea Level Pressure  
Sea Level Pressure 29.91 in    
Wind  
Wind Speed 4 mph (SW)    
Max Wind Speed 7 mph    
Max Gust Speed -    
Visibility 8 miles    
Events      
Averages and records for this station are not official NWS values.
T = Trace of Precipitation, MM = Missing Value Source: NWS Daily Summary

Daily Weather History Graph

Daily Weather History Graph

Search for Another Location

Airport:

Trip Planner

Search our weather history database for the weather conditions in past years. The results will help you decide how hot, cold, wet, or windy it might be!

Date:

Astronomy

Dec. 02, 2013 Rise Set
Actual Time 7:19 AM EST 4:35 PM EST
Civil Twilight 6:48 AM EST 5:06 PM EST
Nautical Twilight 6:13 AM EST 5:42 PM EST
Astronomical Twilight 5:39 AM EST 6:16 PM EST
Moon 6:41 AM EST (12/2) 4:37 PM EST (12/2)
Length of Visible Light 10h 18m
Length of Day
9h 15m
Waning Crescent, 0% of the Moon is Illuminated
Dec 2
Waning Crescent
Dec 2
New
Dec 9
First Quarter
Dec 17
Full
Dec 25
Last Quarter

Hourly Weather History & Observations

Time (EST) Temp. Windchill Dew Point Humidity Pressure Visibility Wind Dir Wind Speed Gust Speed Precip Events Conditions
12:53 AM 35.1 °F 30.1 °F 32.0 °F 89% 29.97 in 9.0 mi SW 5.8 mph - N/A   Overcast
1:53 AM 35.1 °F 31.0 °F 32.0 °F 89% 29.96 in 9.0 mi SSW 4.6 mph - N/A   Overcast
2:53 AM 35.1 °F 30.1 °F 32.0 °F 89% 29.96 in 9.0 mi SSW 5.8 mph - N/A   Overcast
3:53 AM 35.1 °F 29.3 °F 30.9 °F 85% 29.94 in 10.0 mi SSW 6.9 mph - N/A   Overcast
4:53 AM 35.1 °F - 30.9 °F 85% 29.94 in 9.0 mi Calm Calm - N/A   Overcast
5:53 AM 35.1 °F 32.2 °F 32.0 °F 89% 29.93 in 9.0 mi SW 3.5 mph - N/A   Overcast
6:53 AM 35.1 °F 30.1 °F 32.0 °F 89% 29.94 in 8.0 mi SW 5.8 mph - N/A   Overcast
7:53 AM 35.1 °F 30.1 °F 32.0 °F 89% 29.93 in 7.0 mi SW 5.8 mph - N/A   Overcast
8:53 AM 36.0 °F 31.1 °F 32.0 °F 86% 29.94 in 8.0 mi SSW 5.8 mph - N/A   Overcast
9:53 AM 37.0 °F 32.4 °F 30.9 °F 79% 29.94 in 9.0 mi SW 5.8 mph - N/A   Overcast
10:53 AM 37.0 °F 33.3 °F 32.0 °F 82% 29.92 in 9.0 mi SSW 4.6 mph - N/A   Overcast
11:53 AM 37.0 °F 33.3 °F 32.0 °F 82% 29.91 in 9.0 mi SSW 4.6 mph - N/A   Overcast
12:53 PM 37.9 °F 34.4 °F 30.9 °F 76% 29.89 in 9.0 mi South 4.6 mph - N/A   Overcast
1:53 PM 37.9 °F 33.5 °F 32.0 °F 79% 29.88 in 9.0 mi SW 5.8 mph - N/A   Overcast
2:53 PM 39.0 °F 36.8 °F 32.0 °F 76% 29.87 in 9.0 mi South 3.5 mph - N/A   Overcast
3:53 PM 37.9 °F - 32.0 °F 79% 29.88 in 9.0 mi Calm Calm - N/A   Overcast
4:53 PM 36.0 °F - 30.9 °F 82% 29.88 in 10.0 mi Calm Calm - N/A   Overcast
5:53 PM 35.1 °F 31.0 °F 32.0 °F 89% 29.89 in 8.0 mi SSE 4.6 mph - N/A   Overcast
6:53 PM 36.0 °F - 32.0 °F 86% 29.90 in 7.0 mi Calm Calm - N/A   Overcast
7:53 PM 35.1 °F - 32.0 °F 89% 29.91 in 7.0 mi Calm Calm - N/A   Overcast
8:20 PM 35.6 °F - 32.0 °F 87% 29.87 in 7.0 mi Calm Calm - N/A   Overcast
8:53 PM 37.0 °F - 32.0 °F 82% 29.91 in 7.0 mi Calm Calm - N/A   Overcast
9:11 PM 37.4 °F 32.8 °F 30.2 °F 75% 29.88 in 7.0 mi NW 5.8 mph - N/A   Overcast
9:29 PM 37.4 °F 34.9 °F 30.2 °F 75% 29.88 in 7.0 mi NW 3.5 mph - N/A   Overcast
9:53 PM 37.0 °F 34.5 °F 30.0 °F 76% 29.91 in 7.0 mi NW 3.5 mph - N/A   Overcast
10:08 PM 37.4 °F - 30.2 °F 75% 29.88 in 7.0 mi Calm Calm - N/A   Overcast
10:27 PM 35.6 °F - 30.2 °F 81% 29.88 in 6.0 mi Calm Calm - N/A   Haze
10:53 PM 36.0 °F - 30.9 °F 82% 29.91 in 5.0 mi Calm Calm - N/A   Haze
11:53 PM 36.0 °F 31.1 °F 30.0 °F 79% 29.91 in 5.0 mi NW 5.8 mph - N/A   Haze